Back to catalog

GALILEO 9 (205)

LostNavigationMEO
NORAD 40889·PAYLOAD·🇪🇺 EU

Launched Sep 11, 2015 from Guiana Space Centre

Loading…

Next Passes (next 24 hours)

TLE

StaleSource: Space-Track

Epoch: May 24, 2026, 07:17 UTC

1 40889U 15045A   26144.30399159 -.00000014  00000-0  00000-0 0  9996
2 40889  54.9357 222.4171 0006406 263.0112  96.9692  1.67409242 66563

Track GALILEO 9 (205) in real time with AllMySat

Download on the App Store